Flag for Egypt Weather past 2 weeks in Port Said, Egypt

Now
73 °F

Sunny.


Feels Like: 75 °F
Forecast: 68 / 75 °F
Wind: 13 mph from East

Location: Port Said Airport


UV Index: 7 (High)

Visibility: 10 mi


Pressure: 30.07 "Hg

Humidity: 74%

Dew point: 64 °F

Location of Port SaidLocation

Historic Weather in Port Said

°F

Port Said temperature yesterday

Maximum temperature yesterday: 77 °F (at 9:00 AM)
Minimum temperature yesterday: 64 °F (at 1:00 AM)
Average temperature yesterday: 69 °F

Past Weeks' High & Low Weather Summary

 TemperatureHumidityPressure
High91 °F (Apr 18, 2:00 PM)100% (Apr 8, 9:00 PM)30.09 "Hg (Apr 8, 9:00 PM)
Low55 °F (Apr 11, 1:00 AM)21% (Apr 18, 2:00 PM)29.77 "Hg (Apr 15, 5:00 AM)
Average68 °F78%29.96 "Hg
* Reported Apr 8 8:00 AM — Apr 23 8:00 AM, Port Said, Weather by CustomWeather, © 2014

Note: Actual official high and low records may vary slightly from our data, if they occured in-between our weather recording intervals... More about our weather records

Advertising

Historic Weather Conditions — Data for Previous 24 hours

 ConditionsComfort  
Time TempWeatherWind HumidityBarometerVisibility
8:00 AM
Apr 23
70 °FSunny.12 mph83%30.04 "Hg10 mi
7:00 AM70 °FSunny.12 mph83%30.04 "Hg10 mi
6:00 AM66 °FSunny.12 mph83%30.04 "Hg10 mi
5:00 AM66 °FClear.12 mph83%30.01 "Hg10 mi
4:00 AM66 °FClear.12 mph83%30.04 "Hg10 mi
3:00 AM66 °FClear.9 mph78%30.04 "Hg10 mi
2:00 AM68 °FClear.12 mph78%30.04 "Hg10 mi
1:00 AM68 °FClear.12 mph78%30.07 "Hg10 mi
12:00 AM68 °FClear.9 mph78%30.07 "Hg10 mi
11:00 PM
Apr 22
68 °FClear.9 mph78%30.07 "Hg10 mi
10:00 PM68 °FClear.12 mph78%30.07 "Hg10 mi
9:00 PM68 °FClear.9 mph78%30.07 "Hg10 mi
8:00 PM70 °FClear.9 mph73%30.04 "Hg10 mi
7:00 PM70 °FClear.9 mph73%30.04 "Hg10 mi
6:00 PM68 °FSunny.8 mph78%30.01 "Hg10 mi
5:00 PM72 °FSunny.10 mph69%30.01 "Hg10 mi
4:00 PM72 °FSunny.8 mph69%30.01 "Hg10 mi
3:00 PM72 °FSunny.5 mph69%30.01 "Hg10 mi
2:00 PM73 °FSunny.7 mph65%30.04 "Hg10 mi
1:00 PM72 °FSunny.8 mph65%30.07 "Hg10 mi
12:00 PM75 °FSunny.6 mph61%30.07 "Hg10 mi
11:00 AM72 °FSunny.5 mph65%30.07 "Hg10 mi
10:00 AM72 °FSunny.3 mph65%30.07 "Hg10 mi
9:00 AM77 °FPassing clouds.5 mph54%30.07 "HgN/A
Weather by CustomWeather, © 2014

See weather overview